Change the Weather History Date:

Wednesday, February 20, 2013

  Actual Average Record
Temperature  
Mean Temperature 46 °F -  
Max Temperature 59 °F 58 °F 66 °F (2004)
Min Temperature 32 °F 40 °F 30 °F (2009)
Degree Days  
Heating Degree Days 20    
Moisture  
Dew Point 38 °F    
Average Humidity 82    
Maximum Humidity 93    
Minimum Humidity 51    
Precipitation  
Precipitation 0.00 in 0.07 in - ()
Sea Level Pressure  
Sea Level Pressure 29.92 in    
Wind  
Wind Speed 3 mph ()    
Max Wind Speed 7 mph    
Max Gust Speed -    
Visibility 5.9 miles    
Events      
Averages and records for this station are not official NWS values.
T = Trace of Precipitation, MM = Missing Value Source: Averaged Metar Reports

Daily Weather History Graph

Daily Weather History Graph

Search for Another Location

Airport or City:

Trip Planner

Search our weather history database for the weather conditions in past years. The results will help you decide how hot, cold, wet, or windy it might be!

Date:

Astronomy

Feb. 20, 2013 Rise Set
Actual Time 7:13 AM CET 6:07 PM CET
Civil Twilight 6:46 AM CET 6:35 PM CET
Nautical Twilight 6:14 AM CET 7:07 PM CET
Astronomical Twilight 5:42 AM CET 7:39 PM CET
Moon 1:14 PM CET (2/20) 3:22 AM CET (2/20)
Length of Visible Light 11h 49m
Length of Day
10h 53m
Waxing Gibbous, 74% of the Moon is Illuminated
Feb 20
Waxing Gibbous
Feb 25
Full
Mar 4
Last Quarter
Mar 11
New
Mar 19
First Quarter

Hourly Weather History & Observations

Time (CET) Temp. Windchill Dew Point Humidity Pressure Visibility Wind Dir Wind Speed Gust Speed Precip Events Conditions
12:20 AM 33.8 °F - 32.0 °F 93% 29.98 in 5.0 mi Variable 2.3 mph - N/A   Unknown
1:20 AM 33.8 °F - 32.0 °F 93% 29.98 in - North 2.3 mph - N/A   Clear
1:50 AM 33.8 °F 30.8 °F 32.0 °F 93% 29.98 in - NNE 3.5 mph - N/A   Clear
2:20 AM 33.8 °F - 32.0 °F 93% 29.98 in - Variable 2.3 mph - N/A   Clear
2:50 AM 33.8 °F 30.8 °F 30.2 °F 87% 29.98 in - North 3.5 mph - N/A   Clear
3:20 AM 33.8 °F 30.8 °F 32.0 °F 93% 29.95 in - Variable 3.5 mph - N/A   Clear
3:50 AM 33.8 °F - 32.0 °F 93% 29.95 in - Variable 2.3 mph - N/A   Clear
4:20 AM 33.8 °F - 30.2 °F 87% 29.95 in - Variable 1.2 mph - N/A   Clear
4:50 AM 32.0 °F - 30.2 °F 93% 29.95 in - Variable 1.2 mph - N/A   Clear
5:20 AM 32.0 °F - 30.2 °F 93% 29.95 in - Variable 2.3 mph - N/A   Clear
5:50 AM 33.8 °F - 32.0 °F 93% 29.95 in - Variable 2.3 mph - N/A   Clear
6:20 AM 35.6 °F 31.7 °F 33.8 °F 93% 29.95 in 6.2 mi North 4.6 mph - N/A   Scattered Clouds
6:50 AM 35.6 °F 32.8 °F 33.8 °F 93% 29.95 in 6.2 mi NNE 3.5 mph - N/A   Partly Cloudy
7:20 AM 33.8 °F - 32.0 °F 93% 29.95 in 6.2 mi Variable 2.3 mph - N/A   Partly Cloudy
7:50 AM 35.6 °F - 33.8 °F 93% 29.95 in 6.2 mi Variable 2.3 mph - N/A   Partly Cloudy
8:20 AM 35.6 °F 32.8 °F 33.8 °F 93% 29.95 in 6.2 mi NE 3.5 mph - N/A   Partly Cloudy
8:50 AM 39.2 °F - 37.4 °F 93% 29.95 in 6.2 mi Variable 2.3 mph - N/A   Partly Cloudy
9:20 AM 44.6 °F 43.1 °F 41.0 °F 87% 29.95 in 6.2 mi NE 3.5 mph - N/A   Partly Cloudy
9:50 AM 48.2 °F - 44.6 °F 87% 29.95 in 6.2 mi Variable 1.2 mph - N/A   Partly Cloudy
10:20 AM 51.8 °F - 46.4 °F 82% 29.95 in 6.2 mi Variable 2.3 mph - N/A   Partly Cloudy
10:50 AM 53.6 °F - 44.6 °F 72% 29.95 in 6.2 mi Variable 2.3 mph - N/A   Partly Cloudy
11:20 AM 55.4 °F - 44.6 °F 67% 29.95 in 6.2 mi Variable 2.3 mph - N/A   Partly Cloudy
11:50 AM 57.2 °F - 42.8 °F 59% 29.92 in 6.2 mi South 3.5 mph - N/A   Partly Cloudy
12:20 PM 57.2 °F - 39.2 °F 51% 29.92 in 6.2 mi Variable 3.5 mph - N/A   Scattered Clouds
12:50 PM 59.0 °F - 41.0 °F 51% 29.92 in 6.2 mi WSW 4.6 mph - N/A   Scattered Clouds
1:20 PM 57.2 °F - 39.2 °F 51% 29.89 in 6.2 mi Variable 4.6 mph - N/A   Scattered Clouds
1:50 PM 55.4 °F - 42.8 °F 63% 29.89 in 6.2 mi North 4.6 mph - N/A   Scattered Clouds
2:20 PM 57.2 °F - 44.6 °F 63% 29.89 in 6.2 mi NE 5.8 mph - N/A   Scattered Clouds
2:50 PM 55.4 °F - 42.8 °F 63% 29.86 in 6.2 mi North 5.8 mph - N/A   Scattered Clouds
3:20 PM 55.4 °F - 44.6 °F 67% 29.86 in 6.2 mi North 6.9 mph - N/A   Scattered Clouds
4:20 PM 53.6 °F - 44.6 °F 72% 29.86 in 6.2 mi NNE 6.9 mph - N/A   Partly Cloudy
4:50 PM 53.6 °F - 44.6 °F 72% 29.86 in 6.2 mi NNE 6.9 mph - N/A   Partly Cloudy
5:20 PM 53.6 °F - 44.6 °F 72% 29.86 in 6.2 mi NNE 5.8 mph - N/A   Partly Cloudy
5:50 PM 51.8 °F - 42.8 °F 71% 29.86 in - NNE 4.6 mph - N/A   Clear
6:20 PM 48.2 °F - 42.8 °F 82% 29.89 in - NNE 4.6 mph - N/A   Clear
6:50 PM 48.2 °F - 42.8 °F 82% 29.89 in - North 4.6 mph - N/A   Clear
7:20 PM 46.4 °F 44.3 °F 42.8 °F 87% 29.89 in - North 4.6 mph - N/A   Clear
7:50 PM 44.6 °F 43.1 °F 41.0 °F 87% 29.89 in - North 3.5 mph - N/A   Clear
8:20 PM 42.8 °F 40.1 °F 39.2 °F 87% 29.89 in - North 4.6 mph - N/A   Clear
8:50 PM 42.8 °F - 39.2 °F 87% 29.89 in - Calm Calm - N/A   Clear
9:20 PM 42.8 °F - 41.0 °F 93% 29.89 in - Calm Calm - N/A   Clear
9:50 PM 41.0 °F 39.0 °F 37.4 °F 87% 29.89 in 4.3 mi North 3.5 mph - N/A   Unknown
10:20 PM 41.0 °F 39.0 °F 39.2 °F 93% 29.89 in 4.3 mi North 3.5 mph - N/A   Unknown
10:50 PM 39.2 °F - 37.4 °F 93% 29.89 in 5.0 mi Variable 2.3 mph - N/A   Unknown
11:20 PM 39.2 °F 37.0 °F 37.4 °F 93% 29.89 in 5.0 mi NNE 3.5 mph - N/A   Unknown
11:50 PM 37.4 °F - 35.6 °F 93% 29.89 in 5.0 mi NE 2.3 mph - N/A   Unknown